Temperature
-1 -0 -0 0 0 -0 -0 0 0 1 1 2 2 1 1 2 2 2 2 2 2 2 2 2 3 3 3 3 3 3 3 3 3 3 3 3 3 3 3 3 3 3 3 3
-1 -0 -1 -0 0 0 0 0 -0 0 1 1 1 1 1 1 1 1 1 2 2 2 2 2 2 2 2 3 3 3 3 3 3 3 3 3 3 3 3 3 2 2 2 2
-1 -2 -1 -1 -0 -0 -0 -0 -0 0 1 1 0 0 1 1 1 1 1 2 2 2 2 2 2 2 2 2 2 2 2 2 2 2 2 2 2 2 2 2 2 2 2 2
-3 -2 -1 1 0 -0 -0 -0 -1 -0 -0 -0 0 1 1 1 1 1 2 1 1 2 2 2 1 1 1 2 2 2 2 2 2 2 2 2 2 2 2 2 2 2 2 1
-3 -2 -2 -0 -0 -1 -1 -0 -1 -1 -1 -0 0 0 0 2 1 1 1 1 1 1 1 1 1 1 1 1 1 1 1 1 2 2 2 2 2 2 2 2 1 1 1 1
-4 -2 -2 0 0 -0 -0 -1 -0 -1 -1 -1 -1 -1 -0 1 1 1 1 1 1 1 1 1 1 1 1 1 1 1 1 1 1 1 1 1 1 1 1 1 1 1 1 1
-4 -3 -2 -1 -1 -0 -0 0 0 -0 -0 -1 -1 -1 1 1 1 1 1 1 1 1 1 1 1 0 0 0 0 1 1 1 1 1 1 1 1 1 1 1 1 0 0 0
-4 -3 -2 -1 -2 -1 -0 0 0 0 0 -0 -0 -0 0 0 0 0 0 0 0 0 0 0 0 0 0 0 0 0 0 0 0 0 0 0 0 0 0 0 0 -0 -0 0
-3 -2 -1 -1 -1 0 0 0 0 -0 -0 -0 -1 -1 -0 -0 -0 -0 -0 -0 -0 -0 -0 -0 -0 -0 -1 -0 -0 -0 -0 -0 -0 -0 -0 -0 -0 -0 -0 -0 -1 -1 -1 -0
-4 -3 -2 -1 -0 -0 -0 -0 -0 -0 -1 -1 -1 -1 -1 -1 -1 -1 -1 -1 -1 -1 -1 -1 -1 -1 -1 -1 -1 -1 -1 -1 -1 -1 -1 -1 -1 -1 -1 -1 -1 -1 -1 -1
-4 -4 -3 -1 -0 -0 -0 -0 -1 -1 -1 -1 -1 -2 -1 -1 -1 -1 -1 -1 -1 -2 -1 -1 -1 -1 -1 -1 -1 -1 -1 -1 -1 -1 -1 -1 -1 -1 -1 -1 -1 -1 -2 -2
-3 -2 -3 -1 -0 -0 -1 -1 -1 -1 -1 -1 -2 -2 -2 -2 -2 -2 -2 -2 -2 -2 -2 -2 -2 -2 -2 -2 -2 -2 -2 -2 -2 -2 -2 -2 -2 -2 -2 -2 -2 -2 -2 -2
-1 -1 -1 -1 -1 -1 -1 -1 -1 -2 -2 -2 -2 -2 -2 -3 -3 -3 -3 -2 -3 -3 -3 -2 -2 -2 -2 -2 -2 -2 -2 -2 -2 -2 -2 -2 -2 -2 -2 -2 -2 -2 -2 -2
-2 -2 -2 -2 -1 -1 -2 -2 -2 -2 -2 -2 -2 -3 -3 -3 -3 -3 -3 -3 -3 -3 -3 -3 -3 -3 -3 -3 -3 -3 -3 -3 -3 -3 -3 -3 -2 -2 -2 -2 -2 -2 -2 -2
-2 -2 -2 -2 -2 -2 -2 -2 -2 -2 -2 -3 -3 -3 -3 -3 -3 -3 -3 -3 -3 -4 -4 -4 -3 -3 -3 -3 -3 -3 -3 -3 -3 -3 -3 -3 -3 -3 -3 -3 -3 -3 -3 -3
-3 -3 -3 -3 -3 -2 -3 -3 -3 -3 -3 -3 -3 -3 -4 -4 -4 -4 -4 -4 -4 -4 -4 -4 -4 -4 -4 -4 -4 -4 -4 -3 -3 -3 -3 -3 -3 -3 -3 -3 -4 -4 -3 -3
-3 -3 -3 -3 -3 -3 -3 -3 -3 -3 -3 -4 -4 -4 -4 -4 -4 -4 -4 -4 -4 -4 -4 -4 -4 -4 -4 -4 -4 -4 -4 -4 -4 -4 -4 -4 -4 -4 -4 -4 -4 -4 -4 -4
-3 -3 -3 -3 -3 -3 -3 -3 -4 -4 -4 -4 -4 -4 -4 -4 -4 -4 -5 -5 -5 -4 -4 -4 -4 -4 -5 -5 -5 -5 -5 -5 -5 -4 -4 -4 -4 -4 -4 -4 -4 -5 -5 -5
-3 -3 -3 -3 -3 -3 -4 -4 -4 -4 -4 -4 -4 -5 -5 -5 -5 -5 -5 -5 -5 -5 -4 -5 -5 -5 -5 -5 -5 -5 -5 -5 -5 -5 -5 -5 -5 -5 -5 -5 -5 -5 -5 -5
-3 -3 -3 -4 -4 -4 -4 -4 -4 -4 -5 -5 -5 -5 -5 -5 -5 -5 -5 -5 -5 -5 -5 -5 -5 -5 -5 -5 -5 -5 -5 -5 -5 -5 -5 -5 -5 -5 -5 -5 -5 -5 -5 -5
-4 -4 -4 -4 -4 -4 -4 -5 -5 -5 -5 -5 -5 -5 -5 -5 -5 -5 -5 -5 -5 -5 -5 -5 -5 -5 -5 -5 -5 -6 -6 -6 -6 -6 -6 -6 -6 -6 -6 -6 -5 -5 -6 -6
-4 -4 -4 -4 -4 -5 -5 -5 -5 -5 -5 -5 -5 -6 -6 -5 -5 -5 -5 -6 -5 -6 -5 -5 -5 -6 -6 -6 -6 -6 -6 -6 -6 -6 -6 -6 -6 -6 -6 -6 -6 -6 -6 -6
-5 -5 -5 -5 -5 -5 -5 -5 -6 -6 -6 -6 -6 -6 -6 -6 -6 -6 -6 -6 -6 -6 -6 -6 -6 -6 -6 -6 -6 -6 -6 -6 -6 -6 -6 -6 -6 -6 -6 -6 -6 -6 -6 -6
-5 -5 -5 -5 -5 -5 -6 -6 -6 -6 -6 -6 -6 -6 -6 -6 -6 -6 -6 -6 -6 -6 -6 -6 -6 -6 -6 -6 -6 -6 -6 -6 -6 -6 -6 -6 -6 -7 -7 -7 -7 -7 -7 -7
-5 -5 -5 -6 -6 -6 -6 -6 -6 -6 -7 -7 -7 -7 -7 -7 -7 -7 -7 -7 -7 -7 -6 -6 -6 -6 -6 -6 -6 -6 -6 -6 -7 -7 -7 -7 -7 -7 -7 -7 -7 -7 -7 -7
-6 -6 -6 -6 -6 -6 -7 -7 -7 -7 -7 -7 -7 -7 -7 -7 -7 -7 -7 -7 -7 -7 -7 -7 -7 -7 -7 -7 -7 -7 -7 -7 -7 -7 -7 -7 -7 -7 -7 -7 -7 -7 -7 -7
-6 -6 -6 -6 -7 -7 -7 -7 -7 -7 -8 -8 -8 -8 -8 -8 -8 -8 -8 -7 -7 -7 -7 -7 -7 -7 -7 -7 -7 -7 -7 -7 -7 -7 -7 -7 -7 -7 -8 -8 -8 -7 -7 -7
Wind_Speed
7 7 5 7 8 7 9 9 9 9 10 12 9 7 6 4 4 3 3 3 3 2 2 1 1 1 1 1 0 0 0 0 1 1 1 1 1 1 1 1 2 2 2 2
4 4 5 8 9 10 10 9 10 11 13 10 8 5 4 4 4 5 4 4 4 3 2 2 2 2 1 1 1 0 0 1 1 1 1 1 1 1 1 1 1 1 2 2
4 5 4 7 9 9 7 7 8 11 11 7 6 7 6 6 6 6 5 4 4 4 4 4 3 3 3 2 1 0 1 1 1 1 1 2 2 2 2 2 2 2 2 2
2 2 6 7 3 6 7 8 9 8 8 7 8 8 7 6 6 6 5 5 5 4 4 3 3 2 2 2 1 1 2 2 2 1 2 2 2 3 3 2 3 3 3 3
2 3 8 8 3 3 5 8 7 9 8 6 5 4 5 4 4 6 6 5 5 4 4 3 3 2 2 2 2 2 2 3 3 2 3 3 3 4 3 3 3 3 3 3
3 3 7 6 3 2 2 6 5 5 6 5 2 4 6 4 4 4 4 4 3 3 2 2 3 2 2 2 2 3 4 4 3 3 3 4 4 4 3 3 3 3 3 3
5 5 8 6 3 2 3 6 4 4 5 4 5 6 6 5 4 4 4 3 2 2 2 3 3 2 3 3 4 4 4 3 3 3 3 4 4 3 3 3 2 2 3 3
4 5 8 3 3 5 6 4 4 5 5 5 6 6 5 5 4 3 3 3 2 2 2 2 2 3 3 4 4 3 3 3 3 3 3 3 3 3 3 3 3 2 2 2
8 8 5 3 5 5 4 5 5 5 5 4 5 6 5 5 4 4 3 2 2 2 2 2 2 2 4 4 3 2 2 3 3 3 2 3 3 3 3 3 3 2 2 3
6 8 7 7 7 6 6 6 6 5 5 4 6 6 6 5 4 3 3 2 2 1 2 3 3 2 3 3 3 2 3 3 3 2 2 2 2 3 3 4 3 3 3 3
7 7 7 7 7 7 6 5 5 5 5 5 5 6 5 5 4 4 3 3 2 2 3 3 3 3 3 2 2 3 3 3 2 2 2 2 2 3 4 4 5 4 4 4
8 8 6 7 6 5 6 6 6 5 5 4 4 5 5 5 4 4 3 3 2 2 2 3 3 3 3 2 2 3 3 3 2 2 2 2 2 2 3 4 5 5 5 4
8 7 7 8 7 5 6 6 6 5 5 5 4 4 4 4 4 3 3 3 3 3 3 3 3 3 3 2 2 3 3 3 2 2 2 2 2 2 2 2 2 3 4 5
7 5 6 6 6 6 5 5 4 4 4 4 4 3 3 3 3 3 4 3 3 2 2 2 2 3 3 2 2 3 3 3 3 3 3 3 3 2 2 2 1 2 2 3
6 6 6 6 5 4 3 2 3 4 4 4 3 3 3 3 4 4 3 3 2 2 2 2 2 4 3 2 2 2 3 2 2 2 2 2 2 2 2 2 2 2 1 2
6 4 4 4 5 4 3 3 4 5 4 4 4 4 3 3 3 3 2 2 2 3 3 3 3 4 3 2 2 2 2 3 3 2 2 2 2 2 2 2 2 2 2 2
3 4 4 5 5 5 4 4 4 5 5 4 4 3 2 1 2 2 3 2 2 3 3 3 4 3 3 2 2 2 1 1 2 2 2 2 2 2 2 2 2 2 2 3
5 5 5 4 5 5 5 4 4 4 4 4 3 2 2 2 3 3 3 3 2 3 3 3 3 3 2 2 2 1 1 1 1 1 1 1 2 2 2 2 2 2 2 2
3 3 3 3 4 4 4 4 4 4 3 2 2 2 2 2 2 3 2 2 2 3 4 3 4 2 2 2 2 1 1 1 1 1 1 2 1 1 2 2 2 2 2 2
2 2 2 2 2 2 3 3 2 2 2 2 2 2 2 2 2 2 2 3 3 3 3 3 3 2 2 2 2 1 2 2 2 1 1 1 1 1 2 2 2 2 2 2
2 2 2 2 3 3 2 2 1 2 2 2 2 2 3 3 2 2 2 3 3 3 3 4 2 2 2 2 1 1 1 2 2 2 2 2 2 2 2 2 2 2 2 2
2 2 2 2 2 3 3 2 1 2 2 2 2 2 1 2 2 2 2 3 3 4 3 2 2 2 2 2 0 0 1 1 1 1 1 2 2 2 2 2 2 2 2 2
2 2 2 2 2 3 3 2 1 1 2 2 2 2 2 2 2 2 3 2 2 3 2 2 2 3 2 1 1 1 0 1 1 1 1 1 1 2 2 2 2 2 2 1
1 1 2 2 1 1 2 3 2 2 1 2 2 1 1 1 2 2 2 3 3 3 2 2 2 2 2 1 1 0 0 0 1 1 1 1 1 1 1 1 1 1 2 2
1 1 1 1 1 1 2 2 2 2 2 2 2 2 1 1 1 2 2 2 2 2 2 2 3 3 2 1 0 0 0 1 1 1 1 1 1 1 1 1 1 2 2 2
1 1 1 1 1 1 1 1 1 1 1 2 2 2 2 1 1 1 1 1 1 2 2 2 2 2 1 1 1 1 0 1 1 1 1 1 1 1 1 1 2 2 2 2
1 1 1 2 2 1 1 1 1 2 1 1 2 2 1 1 1 1 1 1 1 1 1 1 1 1 1 1 1 1 1 1 1 1 0 1 1 1 1 2 2 1 2 2
Wind_Direction
257 264 248 243 245 228 217 219 229 252 256 270 281 278 281 283 285 289 285 282 276 275 275 292 304 314 318 311 305 120 65 112 215 212 192 179 177 180 177 182 201 208 202 204
283 281 270 268 260 242 236 233 242 259 270 268 275 275 272 271 272 269 264 267 272 271 262 264 261 266 270 264 266 236 244 275 250 198 191 192 190 175 169 193 216 205 208 205
275 309 327 272 242 226 230 225 217 239 253 269 278 275 265 258 258 254 256 261 261 254 244 246 245 237 233 230 229 238 264 268 256 212 207 218 208 191 196 200 200 212 223 218
257 2 252 251 232 215 229 249 234 243 257 259 263 272 270 254 243 251 256 261 257 251 249 248 251 247 229 208 212 233 258 266 257 238 226 223 214 210 218 208 206 213 219 220
183 246 276 287 257 198 220 266 239 239 254 264 277 295 285 254 237 245 252 256 250 244 245 241 240 237 219 217 217 232 249 256 250 236 230 226 224 223 219 209 216 215 204 207
183 223 252 263 260 215 177 277 260 229 246 257 281 288 280 280 268 271 270 260 249 246 246 240 246 221 211 225 222 239 248 251 247 233 226 229 229 224 214 203 212 210 215 214
208 234 261 262 256 142 195 260 289 240 245 238 235 245 272 292 293 280 274 266 251 237 236 244 243 208 216 228 238 249 253 250 246 234 233 230 221 214 203 199 199 205 216 226
182 219 253 232 147 195 237 289 292 274 260 250 259 276 286 288 286 286 286 282 262 238 259 266 243 206 228 243 249 248 249 251 252 247 241 225 208 207 197 189 192 206 219 237
201 223 256 223 226 252 269 272 269 270 272 267 271 279 287 289 286 285 273 270 268 243 267 283 271 220 232 252 248 241 240 249 254 254 230 215 203 200 195 192 199 216 218 231
251 262 264 266 266 272 268 267 271 268 270 268 270 275 279 282 285 285 280 279 276 246 259 280 286 265 243 244 233 225 236 248 247 241 227 213 213 204 200 201 205 217 223 231
256 273 290 273 257 258 264 271 280 281 269 261 263 271 272 276 277 277 281 288 270 246 255 269 279 280 274 249 214 219 230 240 247 239 224 221 226 221 217 219 210 215 222 220
243 245 239 263 269 261 261 268 271 276 282 277 260 267 275 278 278 276 278 282 278 270 263 271 275 280 283 261 220 212 228 234 236 235 228 224 226 264 267 246 241 238 236 232
248 259 252 268 279 273 266 272 274 267 266 276 278 269 269 276 280 278 276 274 270 270 270 273 277 280 283 272 234 220 226 237 238 233 228 222 217 217 254 301 270 251 244 246
254 257 267 267 273 285 282 282 283 281 278 270 274 277 274 275 276 272 271 272 270 269 273 275 281 284 285 279 255 242 235 238 235 228 224 221 218 219 222 231 264 286 273 255
261 252 253 271 283 290 292 297 303 298 298 295 283 274 264 262 265 270 278 290 288 279 280 283 288 290 297 291 268 254 242 234 226 223 223 219 215 212 217 221 234 253 281 275
276 279 271 273 273 279 289 287 284 286 290 289 286 279 273 267 272 281 284 275 263 271 273 276 281 287 300 297 283 268 252 234 219 209 207 206 202 206 211 214 228 237 243 252
256 269 271 277 275 277 275 269 266 272 281 280 275 276 279 287 293 295 293 291 278 269 268 268 277 288 292 279 265 263 258 245 233 216 205 205 207 211 212 215 225 240 256 263
234 242 244 254 263 270 278 276 270 269 271 272 277 274 260 254 267 281 293 310 316 308 292 281 281 289 289 282 264 249 235 228 215 207 209 211 206 200 206 218 225 234 256 270
257 261 263 268 264 256 265 273 273 273 276 271 262 266 269 267 268 277 288 295 292 293 295 296 297 302 289 281 270 235 219 215 218 215 204 213 218 205 209 220 231 237 245 256
277 278 278 292 296 279 278 286 287 287 283 270 270 281 286 281 272 270 276 274 271 270 280 294 301 298 290 283 280 219 207 206 206 207 204 195 200 214 215 224 231 239 249 254
291 295 303 307 308 311 300 289 281 281 286 274 258 260 268 279 274 258 264 289 296 294 293 297 305 291 287 285 280 195 198 203 205 204 201 207 210 219 222 225 235 244 250 258
276 282 288 292 305 314 314 308 287 282 295 297 291 279 276 288 294 294 277 258 277 299 308 295 293 290 297 310 60 158 174 184 204 211 210 210 211 220 227 226 231 242 247 254
281 284 289 294 292 298 315 322 306 281 279 280 274 268 268 272 268 270 294 292 285 294 304 287 291 301 314 24 80 104 137 183 216 217 214 214 219 222 225 228 230 232 234 242
304 313 313 317 332 338 328 323 327 321 308 300 293 285 278 294 310 303 282 294 308 311 312 303 312 323 0 50 74 90 199 221 231 224 210 205 211 220 225 228 230 231 232 239
329 332 334 352 333 304 300 322 344 350 350 341 332 330 327 300 281 300 315 312 324 346 353 341 346 350 14 35 34 329 278 246 229 219 211 206 212 219 225 227 227 227 233 242
338 316 297 279 273 282 297 313 322 320 328 333 334 340 348 354 344 328 333 338 342 357 3 344 344 351 2 353 334 308 284 290 307 293 230 225 222 223 225 225 230 236 240 247
5 354 351 352 348 338 330 319 305 307 313 311 311 322 339 353 358 354 356 359 359 4 359 350 352 351 346 342 339 340 331 314 297 283 263 245 235 232 231 232 236 238 238 241
Height
1479 1475 1475 1473 1472 1473 1474 1472 1471 1464 1461 1453 1451 1450 1449 1448 1447 1447 1446 1446 1446 1446 1446 1446 1447 1447 1448 1448 1449 1450 1450 1451 1452 1453 1453 1454 1455 1456 1457 1458 1459 1460 1460 1461
1478 1473 1474 1472 1467 1467 1466 1465 1465 1461 1456 1449 1448 1447 1447 1446 1445 1444 1444 1444 1444 1444 1444 1445 1445 1445 1446 1446 1447 1447 1448 1448 1449 1450 1451 1451 1452 1453 1454 1455 1456 1456 1457 1457
1478 1476 1472 1469 1462 1460 1460 1458 1458 1456 1450 1447 1447 1445 1444 1443 1442 1441 1441 1441 1441 1442 1442 1442 1443 1443 1443 1444 1444 1445 1445 1446 1446 1447 1448 1449 1449 1450 1451 1451 1452 1453 1453 1454
1481 1479 1476 1458 1453 1453 1453 1451 1451 1449 1446 1445 1444 1442 1440 1440 1440 1439 1439 1439 1439 1439 1439 1440 1440 1440 1441 1441 1442 1442 1443 1443 1443 1444 1445 1445 1446 1447 1447 1448 1448 1449 1449 1450
1481 1478 1468 1455 1451 1451 1452 1448 1444 1444 1442 1442 1441 1439 1437 1437 1437 1436 1436 1436 1436 1436 1436 1437 1437 1437 1438 1438 1438 1439 1439 1440 1440 1441 1441 1442 1442 1443 1443 1444 1444 1445 1446 1447
1480 1476 1469 1451 1447 1446 1449 1447 1440 1439 1439 1439 1439 1441 1436 1434 1433 1432 1432 1432 1432 1433 1433 1433 1434 1434 1434 1434 1434 1435 1436 1436 1436 1437 1437 1437 1438 1439 1439 1440 1440 1441 1442 1443
1475 1474 1461 1449 1446 1446 1452 1445 1438 1437 1436 1437 1437 1436 1433 1431 1430 1429 1429 1429 1429 1429 1429 1430 1430 1430 1430 1430 1430 1431 1432 1432 1432 1433 1433 1433 1434 1435 1435 1436 1437 1437 1439 1440
1473 1470 1459 1444 1445 1446 1442 1437 1436 1435 1434 1433 1432 1431 1429 1428 1427 1426 1425 1425 1425 1425 1425 1426 1426 1426 1426 1426 1427 1427 1428 1428 1428 1428 1429 1429 1430 1430 1431 1432 1433 1433 1434 1435
1456 1451 1442 1440 1439 1438 1437 1435 1434 1432 1431 1431 1429 1428 1426 1425 1424 1423 1423 1422 1422 1422 1422 1422 1422 1422 1422 1422 1423 1423 1423 1424 1424 1424 1424 1425 1426 1426 1427 1428 1429 1429 1430 1431
1449 1441 1438 1437 1435 1435 1434 1433 1431 1430 1429 1428 1426 1425 1423 1422 1421 1420 1420 1419 1419 1419 1418 1418 1418 1418 1418 1419 1419 1419 1419 1419 1420 1420 1420 1421 1422 1423 1424 1424 1425 1426 1426 1427
1444 1438 1435 1432 1431 1430 1430 1429 1428 1426 1425 1424 1423 1421 1420 1419 1418 1417 1417 1416 1416 1415 1415 1414 1414 1414 1414 1415 1415 1415 1415 1415 1416 1416 1417 1417 1418 1419 1420 1421 1422 1422 1423 1424
1436 1432 1432 1428 1427 1427 1426 1425 1424 1423 1421 1421 1420 1418 1417 1416 1415 1414 1413 1413 1412 1412 1411 1411 1411 1411 1411 1411 1411 1411 1411 1411 1412 1412 1413 1414 1415 1415 1416 1418 1419 1419 1420 1421
1428 1427 1426 1424 1424 1423 1421 1420 1420 1419 1418 1417 1416 1415 1414 1412 1412 1411 1411 1410 1409 1408 1408 1408 1407 1407 1407 1407 1408 1407 1407 1407 1408 1409 1409 1410 1411 1412 1412 1414 1415 1415 1416 1417
1424 1423 1421 1420 1419 1419 1418 1417 1416 1415 1414 1413 1412 1411 1410 1409 1408 1408 1407 1407 1406 1406 1405 1405 1404 1404 1404 1404 1404 1404 1404 1404 1405 1405 1406 1407 1408 1408 1409 1409 1410 1411 1412 1413
1419 1419 1418 1417 1416 1415 1414 1413 1412 1411 1410 1409 1409 1408 1407 1406 1405 1404 1404 1404 1403 1403 1402 1402 1401 1401 1401 1400 1400 1400 1400 1400 1401 1402 1403 1404 1404 1405 1406 1406 1407 1407 1408 1409
1415 1414 1414 1413 1412 1412 1411 1410 1409 1408 1407 1406 1405 1404 1404 1403 1402 1402 1401 1401 1400 1400 1399 1398 1398 1398 1397 1397 1397 1397 1397 1397 1398 1399 1399 1400 1401 1402 1402 1403 1404 1404 1404 1405
1411 1410 1409 1409 1409 1408 1408 1407 1406 1405 1404 1403 1402 1401 1401 1400 1400 1399 1399 1398 1398 1397 1397 1396 1395 1395 1394 1394 1394 1394 1394 1394 1395 1396 1396 1397 1398 1399 1399 1400 1401 1401 1402 1402
1408 1408 1407 1407 1406 1405 1404 1404 1403 1402 1401 1400 1399 1399 1398 1398 1397 1396 1396 1396 1396 1395 1394 1394 1393 1392 1392 1391 1391 1391 1391 1391 1392 1392 1393 1394 1395 1396 1397 1397 1398 1398 1399 1399
1405 1405 1404 1404 1404 1403 1402 1401 1400 1399 1398 1397 1397 1396 1396 1395 1395 1394 1394 1394 1393 1392 1392 1391 1391 1390 1389 1389 1388 1388 1388 1389 1389 1390 1391 1391 1392 1393 1394 1395 1395 1396 1396 1396
1402 1402 1401 1401 1401 1400 1399 1398 1397 1396 1396 1395 1394 1394 1393 1393 1393 1392 1392 1392 1391 1390 1390 1389 1389 1388 1387 1386 1386 1386 1386 1386 1386 1387 1388 1389 1390 1390 1391 1392 1392 1393 1393 1393
1399 1399 1398 1398 1398 1397 1397 1396 1395 1394 1393 1393 1392 1392 1391 1391 1391 1390 1390 1389 1389 1389 1388 1387 1386 1386 1385 1384 1384 1384 1384 1384 1384 1385 1386 1386 1387 1388 1388 1389 1389 1390 1390 1390
1396 1396 1396 1396 1395 1395 1394 1393 1392 1392 1391 1390 1390 1389 1389 1389 1388 1388 1388 1388 1387 1387 1386 1385 1384 1384 1383 1383 1382 1382 1382 1382 1382 1383 1383 1384 1385 1385 1385 1386 1386 1386 1387 1387
1394 1394 1393 1393 1393 1392 1392 1391 1391 1390 1389 1389 1388 1388 1387 1387 1386 1386 1386 1386 1385 1385 1384 1384 1383 1382 1382 1382 1381 1381 1381 1381 1381 1381 1381 1382 1382 1382 1382 1383 1383 1383 1384 1384
1392 1392 1392 1391 1391 1390 1389 1389 1389 1388 1388 1387 1387 1386 1386 1385 1385 1385 1384 1384 1383 1383 1382 1382 1382 1381 1381 1380 1380 1380 1379 1379 1379 1379 1379 1379 1379 1380 1380 1380 1380 1381 1381 1382
1391 1390 1390 1389 1389 1388 1388 1387 1387 1387 1386 1385 1385 1385 1384 1384 1383 1383 1382 1382 1382 1381 1381 1381 1380 1380 1379 1379 1379 1378 1378 1377 1377 1377 1377 1377 1377 1377 1378 1378 1378 1379 1379 1380
1389 1389 1388 1388 1387 1387 1386 1385 1385 1385 1384 1383 1383 1383 1382 1382 1382 1381 1381 1381 1380 1380 1380 1379 1379 1378 1378 1377 1377 1377 1376 1376 1376 1375 1375 1375 1375 1375 1375 1376 1376 1377 1377 1377
1388 1388 1387 1386 1386 1385 1385 1384 1383 1383 1383 1382 1381 1381 1381 1380 1380 1379 1379 1379 1379 1378 1378 1378 1377 1377 1376 1376 1375 1375 1375 1374 1374 1374 1373 1373 1373 1374 1374 1374 1374 1375 1375 1375